When you browse on this site, cookies collect data to enhance your experience and personalize the content and advertising you see.
Visit our Privacy Policy to learn more. By continuing to use the site, you agree to this use of cookies and data.
  • In Österreich
  • Länderverzeichnis
  • Für 7 Tage
  • Wassertemperatur
  • Wetterkarte
  • News
  • Widgets
  • user-avatar
    Anmelden

    Stündliche Wetter Townsville

    Heute, 16 Dezember, Montag

    Zeit Temperatur Niederschläge Wind Luftdruck Luftfeuchtigkeit
    00:00 +26°C° 0 mm 3 m/S 751 mmHg 86%
    01:00 +26°C° 0 mm 3 m/S 751 mmHg 88%
    02:00 +26°C° 0 mm 3 m/S 750 mmHg 89%
    03:00 +26°C° 0 mm 3 m/S 750 mmHg 89%
    04:00 +26°C° 0 mm 3 m/S 750 mmHg 91%
    05:00 +27°C° 0 mm 3 m/S 751 mmHg 87%
    06:00 +27°C° 0 mm 3 m/S 751 mmHg 82%
    07:00 +28°C° 0 mm 3 m/S 751 mmHg 78%
    08:00 +30°C° 0 mm 3 m/S 751 mmHg 70%
    09:00 +32°C° 0 mm 4 m/S 751 mmHg 62%
    10:00 +34°C° 0 mm 4 m/S 751 mmHg 55%
    11:00 +35°C° 0 mm 4 m/S 750 mmHg 49%
    12:00 +36°C° 0 mm 4 m/S 750 mmHg 43%
    13:00 +38°C° 0 mm 4 m/S 749 mmHg 37%
    14:00 +37°C° 0 mm 4 m/S 749 mmHg 39%
    15:00 +36°C° 0 mm 4 m/S 748 mmHg 41%
    16:00 +36°C° 0 mm 4 m/S 748 mmHg 43%
    17:00 +34°C° 0 mm 4 m/S 748 mmHg 55%
    18:00 +30°C° 0 mm 3 m/S 749 mmHg 66%
    19:00 +28°C° 0 mm 2 m/S 749 mmHg 77%
    20:00 +27°C° 0 mm 2 m/S 749 mmHg 81%
    21:00 +27°C° 0 mm 2 m/S 750 mmHg 84%
    22:00 +26°C° 0 mm 2 m/S 751 mmHg 87%
    23:00 +26°C° 0 mm 2 m/S 750 mmHg 88%

    Morgen, 17 Dezember, Dienstag

    Zeit Temperatur Niederschläge Wind Luftdruck Luftfeuchtigkeit
    00:00 +26°C° 0 mm 3 m/S 750 mmHg 90%
    01:00 +26°C° 0 mm 3 m/S 750 mmHg 91%
    02:00 +26°C° 0 mm 3 m/S 749 mmHg 91%
    03:00 +26°C° 0 mm 3 m/S 749 mmHg 92%
    04:00 +25°C° 0 mm 3 m/S 749 mmHg 93%
    05:00 +26°C° 0 mm 2 m/S 750 mmHg 87%
    06:00 +27°C° 0 mm 2 m/S 750 mmHg 82%
    07:00 +28°C° 0 mm 2 m/S 751 mmHg 77%
    08:00 +30°C° 0 mm 2 m/S 751 mmHg 67%
    09:00 +32°C° 0 mm 2 m/S 751 mmHg 57%
    10:00 +35°C° 0 mm 2 m/S 751 mmHg 46%
    11:00 +35°C° 0 mm 3 m/S 751 mmHg 47%
    12:00 +36°C° 0 mm 4 m/S 751 mmHg 48%
    13:00 +36°C° 0 mm 4 m/S 750 mmHg 49%
    14:00 +35°C° 0 mm 4 m/S 750 mmHg 51%
    15:00 +34°C° 0 mm 4 m/S 749 mmHg 52%
    16:00 +34°C° 0 mm 4 m/S 749 mmHg 54%
    17:00 +32°C° 0 mm 4 m/S 749 mmHg 62%
    18:00 +29°C° 0 mm 4 m/S 750 mmHg 69%
    19:00 +28°C° 0 mm 3 m/S 751 mmHg 76%
    20:00 +27°C° 0 mm 4 m/S 751 mmHg 78%
    21:00 +27°C° 0 mm 4 m/S 752 mmHg 81%
    22:00 +27°C° 0 mm 4 m/S 752 mmHg 83%
    23:00 +27°C° 0 mm 4 m/S 752 mmHg 83%

    übermorgen, 18 Dezember, Mittwoch

    Zeit Temperatur Niederschläge Wind Luftdruck Luftfeuchtigkeit
    00:00 +26°C° 0 mm 4 m/S 752 mmHg 84%
    01:00 +26°C° 0 mm 4 m/S 751 mmHg 84%
    02:00 +26°C° 0 mm 4 m/S 751 mmHg 84%
    03:00 +26°C° 0 mm 3 m/S 751 mmHg 84%
    04:00 +26°C° 0 mm 3 m/S 751 mmHg 83%
    05:00 +27°C° 0.1 mm 3 m/S 752 mmHg 80%
    06:00 +27°C° 0.1 mm 3 m/S 752 mmHg 76%
    07:00 +28°C° 0.1 mm 2 m/S 753 mmHg 73%
    08:00 +29°C° 0.2 mm 3 m/S 753 mmHg 70%
    09:00 +30°C° 0.2 mm 4 m/S 753 mmHg 67%
    10:00 +32°C° 0.2 mm 5 m/S 753 mmHg 64%
    11:00 +33°C° 0.1 mm 6 m/S 752 mmHg 60%
    12:00 +33°C° 0.1 mm 6 m/S 752 mmHg 55%
    13:00 +34°C° 0.1 mm 7 m/S 751 mmHg 51%
    14:00 +34°C° 0 mm 7 m/S 751 mmHg 52%
    15:00 +33°C° 0 mm 7 m/S 750 mmHg 53%
    16:00 +33°C° 0 mm 8 m/S 750 mmHg 54%
    17:00 +30°C° 0 mm 7 m/S 751 mmHg 59%
    18:00 +29°C° 0 mm 7 m/S 751 mmHg 64%
    19:00 +28°C° 0 mm 7 m/S 752 mmHg 69%
    20:00 +27°C° 0 mm 7 m/S 752 mmHg 71%
    21:00 +26°C° 0 mm 6 m/S 753 mmHg 73%
    22:00 +26°C° 0 mm 5 m/S 753 mmHg 75%
    23:00 +25°C° 0.1 mm 5 m/S 753 mmHg 77%

    19 Dezember, Donnerstag

    Zeit Temperatur Niederschläge Wind Luftdruck Luftfeuchtigkeit
    00:00 +25°C° 0.1 mm 5 m/S 753 mmHg 79%
    01:00 +25°C° 0.1 mm 5 m/S 753 mmHg 81%
    02:00 +23°C° 0 mm 5 m/S 752 mmHg 83%
    03:00 +23°C° 0 mm 4 m/S 752 mmHg 84%
    04:00 +22°C° 0 mm 4 m/S 752 mmHg 86%
    05:00 +23°C° 0.1 mm 4 m/S 752 mmHg 82%
    06:00 +25°C° 0.1 mm 4 m/S 753 mmHg 78%
    07:00 +26°C° 0.1 mm 4 m/S 753 mmHg 74%
    08:00 +27°C° 0 mm 5 m/S 753 mmHg 67%
    09:00 +29°C° 0 mm 5 m/S 754 mmHg 59%
    10:00 +32°C° 0 mm 6 m/S 754 mmHg 52%
    11:00 +32°C° 0 mm 6 m/S 753 mmHg 50%
    12:00 +33°C° 0 mm 6 m/S 753 mmHg 49%
    13:00 +34°C° 0 mm 6 m/S 752 mmHg 48%
    14:00 +33°C° 0 mm 7 m/S 752 mmHg 50%
    15:00 +33°C° 0 mm 7 m/S 751 mmHg 52%
    16:00 +33°C° 0 mm 7 m/S 751 mmHg 54%
    17:00 +30°C° 0 mm 6 m/S 751 mmHg 61%
    18:00 +29°C° 0 mm 6 m/S 752 mmHg 68%
    19:00 +27°C° 0 mm 5 m/S 752 mmHg 75%
    20:00 +27°C° 0 mm 5 m/S 753 mmHg 78%
    21:00 +26°C° 0 mm 5 m/S 753 mmHg 81%
    22:00 +25°C° 0 mm 5 m/S 753 mmHg 84%
    23:00 +25°C° 0 mm 5 m/S 753 mmHg 85%

    20 Dezember, Freitag

    Zeit Temperatur Niederschläge Wind Luftdruck Luftfeuchtigkeit
    00:00 +25°C° 0 mm 4 m/S 753 mmHg 85%
    01:00 +25°C° 0 mm 4 m/S 753 mmHg 86%
    02:00 +25°C° 0.1 mm 4 m/S 752 mmHg 87%
    03:00 +25°C° 0.1 mm 4 m/S 752 mmHg 88%
    04:00 +23°C° 0.1 mm 4 m/S 752 mmHg 88%
    05:00 +25°C° 0.1 mm 4 m/S 752 mmHg 85%
    06:00 +26°C° 0.1 mm 4 m/S 753 mmHg 82%
    07:00 +26°C° 0.1 mm 4 m/S 753 mmHg 79%
    08:00 +28°C° 0.1 mm 4 m/S 753 mmHg 71%
    09:00 +30°C° 0.1 mm 5 m/S 753 mmHg 64%
    10:00 +32°C° 0.1 mm 5 m/S 753 mmHg 56%
    11:00 +33°C° 0.1 mm 5 m/S 753 mmHg 56%
    12:00 +33°C° 0.1 mm 6 m/S 752 mmHg 55%
    13:00 +33°C° 0.1 mm 6 m/S 752 mmHg 55%
    14:00 +33°C° 0 mm 6 m/S 751 mmHg 56%
    15:00 +33°C° 0 mm 6 m/S 751 mmHg 58%
    16:00 +33°C° 0 mm 6 m/S 750 mmHg 59%
    17:00 +30°C° 0 mm 5 m/S 751 mmHg 66%
    18:00 +29°C° 0 mm 5 m/S 751 mmHg 73%
    19:00 +27°C° 0 mm 4 m/S 752 mmHg 80%
    20:00 +27°C° 0 mm 4 m/S 752 mmHg 83%
    21:00 +26°C° 0 mm 4 m/S 752 mmHg 86%
    22:00 +25°C° 0 mm 4 m/S 753 mmHg 90%
    23:00 +25°C° 0 mm 3 m/S 752 mmHg 90%

    21 Dezember, Samstag

    Zeit Temperatur Niederschläge Wind Luftdruck Luftfeuchtigkeit
    00:00 +25°C° 0 mm 3 m/S 752 mmHg 90%
    01:00 +24°C° 0 mm 3 m/S 752 mmHg 90%
    02:00 +24°C° 0.2 mm 3 m/S 752 mmHg 90%
    03:00 +24°C° 0.2 mm 2 m/S 751 mmHg 89%
    04:00 +25°C° 0.2 mm 2 m/S 751 mmHg 89%
    05:00 +25°C° 0.2 mm 2 m/S 752 mmHg 86%
    06:00 +26°C° 0.2 mm 3 m/S 752 mmHg 84%
    07:00 +27°C° 0.2 mm 3 m/S 752 mmHg 81%
    08:00 +28°C° 0.2 mm 3 m/S 752 mmHg 74%
    09:00 +29°C° 0.2 mm 4 m/S 752 mmHg 68%
    10:00 +32°C° 0.2 mm 4 m/S 752 mmHg 61%
    11:00 +32°C° 0 mm 5 m/S 752 mmHg 58%
    12:00 +33°C° 0 mm 5 m/S 752 mmHg 55%
    13:00 +33°C° 0 mm 5 m/S 751 mmHg 52%
    14:00 +33°C° 0 mm 5 m/S 751 mmHg 53%
    15:00 +33°C° 0 mm 5 m/S 751 mmHg 53%
    16:00 +32°C° 0 mm 5 m/S 750 mmHg 53%
    17:00 +30°C° 0 mm 4 m/S 751 mmHg 60%
    18:00 +28°C° 0 mm 4 m/S 751 mmHg 67%
    19:00 +27°C° 0 mm 3 m/S 751 mmHg 74%
    20:00 +26°C° 0 mm 3 m/S 752 mmHg 79%
    21:00 +26°C° 0 mm 3 m/S 752 mmHg 83%
    22:00 +25°C° 0 mm 3 m/S 752 mmHg 88%
    23:00 +25°C° 0 mm 3 m/S 752 mmHg 90%
    Mehr zeigen